154  
ASUS44 KSHV 201710  
RWRSHV  
 
WEATHER ROUNDUP FOR THE FOUR STATE AREA  
NATIONAL WEATHER SERVICE SHREVEPORT LA  
1200 PM CDT SUN MAY 20 2018  
 
NOTE: "FAIR" INDICATES FEW OR NO CLOUDS BELOW 12000 FEET  
WITH NO SIGNIFICANT WEATHER AND/OR S TO VISIBILITY
.  
 
!LAZ001-LAZ014-TXZ097-201800  
SHREVEPORT...MONROE...TEXARKANA RADIOS  
 
CITY SKY/WX TMP DP RH WIND PRES REMARKS
 
SHREVEPORT PTSUNNY 87 69 54 S7 30.04S  
MONROE PTSUNNY 88 72 58 SW8 30.06F  
NATCHITOCHES PTSUNNY 88 69 52 SE3 30.05F  
TEXARKANA MOSUNNY 86 68 54 SW8 30.05F  

 
 
!LAZ001-LAZ014-TXZ097-201800  
OTHER LOCATIONS...  
 
CITY SKY/WX TMP DP RH WIND PRES REMARKS
 
DOWNTOWN SHV N/A 88 69 53 SE10 30.04F  
BOSSIER CITY N/A 87 68 53 SE10 30.04F  
RUSTON N/A 87 67 52 S6 30.10F  
LITTLE ROCK CLOUDY 87 70 56 S8 30.06S  
EL DORADO N/A 88 70 55 S6 30.07F  
JACKSON N/A 87 71 58 VRB6 30.08F  
NEW ORLEANS N/A 88 70 55 VRB3 30.07S  
HOUSTON PTSUNNY 85 72 65 S14G21 30.00R THUNDER  
LUFKIN CLOUDY 87 69 54 S9G20 30.04R  
TYLER MOSUNNY 85 67 54 SW7 30.05S  
DAL FT WORTH LGT RAIN 68 67 96 SE9 30.02F  

 
 
!TXZ136-TXZ165-201800  
TYLER...LUFKIN RADIOS  
 
CITY SKY/WX TMP DP RH WIND PRES REMARKS
 
TYLER MOSUNNY 85 67 54 SW7 30.05S  
GILMER CLOUDY N/A N/A N/A SE5 30.05S  
LONGVIEW CLOUDY 87 69 54 W5 30.03S  
LUFKIN CLOUDY 87 69 54 S9G20 30.04R  

 
 
!TXZ136-TXZ165-201800  
OTHER LOCATIONS...  
 
CITY SKY/WX TMP DP RH WIND PRES REMARKS
 
NACOGDOCHES N/A 87 70 56 S10 30.05R  
BEAUMONT N/A 91 70 49 SE17 30.00F  
HOUSTON PTSUNNY 85 72 65 S14G21 30.00R THUNDER  
COLLEGE STN CLOUDY 83 72 69 S8 30.02R  
AUSTIN CLOUDY 84 71 65 S8 29.99S  
DAL FT WORTH LGT RAIN 68 67 96 SE9 30.02F  
TEXARKANA MOSUNNY 86 68 54 SW8 30.05F  
SHREVEPORT PTSUNNY 87 69 54 S7 30.04S  
FORT POLK N/A 86 68 55 SW8 30.04F  
LAKE CHARLES N/A 88 72 58 S10 30.03F  

 
 
 
CLICK HERE TO GO TO PREVIOUS BULLETINS.

The Nexlab LA Page
The Nexlab TX Page
The Nexlab AR Page
The Nexlab OK Page Main Text Page